Regional Weather Roundup
Issued by NWS

Home | Current Version | Previous Version | Graphics & Text | Print | Product List | Glossary On
Versions: 1 2 3 4 5 6 7 8 9 10 11 12 13 14 15 16 17 18 19 20 21 22 23 24 25 26 27 28 29 30 31 32 33 34 35 36 37 38 39 40 41 42 43 44 45 46 47 48 49 50
000
ASUS43 KLMK 132110
RWRKY
KENTUCKY REGIONAL WEATHER ROUNDUP
NATIONAL WEATHER SERVICE LOUISVILLE KY
400 PM EST WED DEC 13 2017

NOTE "FAIR" INDICATES FEW OR NO CLOUDS BELOW 12,000 FEET
WITH NO SIGNIFICANT WEATHER AND/OR OBSTRUCTIONS TO VISIBILITY.

KYZ001>023-026-027-061>063-070>075-132200-
WESTERN AND SOUTH CENTRAL KENTUCKY

CITY           SKY/WX    TMP DP  RH WIND       PRES   REMARKS
PADUCAH        CLOUDY    52  24  33 SW23G33   29.66F
HENDERSON      SUNNY     49  27  42 SW23G35   29.59F
OWENSBORO      CLOUDY    50  24  36 SW24      29.58F
HOPKINSVILLE   MOSUNNY   51  18  27 SW22      29.67S
BOWLING GREEN  CLOUDY    48  17  29 SW15G25   29.65F
GLASGOW        MOSUNNY   44  16  31 SW14      29.66S
$$

KYZ024-025-028>034-038-045-046-053-132200-
NORTH CENTRAL KENTUCKY

CITY           SKY/WX    TMP DP  RH WIND       PRES   REMARKS
LOUISVILLE/SDF CLOUDY    45  15  30 SW15G24   29.58R
LOUISVILLE/LOU CLOUDY    43  15  32 SW17G31   29.58R
FORT KNOX      CLOUDY    43  15  32 SW17G25   29.58R
$$

KYZ035>037-039>044-047>052-055>060-089>105-132200-
NORTHEAST KENTUCKY

CITY           SKY/WX    TMP DP  RH WIND       PRES   REMARKS
LEXINGTON      CLOUDY    41  10  28 S20G32    29.54F
COVINGTON      CLOUDY    37  11  34 SW20G25   29.50R WCI  27
FRANKFORT      MOSUNNY   42  10  27 SW18G28   29.56R
$$

KYZ054-064>069-076>088-106>120-132200-
SOUTHEAST KENTUCKY

CITY           SKY/WX    TMP DP  RH WIND       PRES   REMARKS
JACKSON        CLOUDY    40   9  28 S8G17     29.59F WCI  34
LONDON         PTSUNNY   42   6  22 S13G21    29.62F
SOMERSET       CLOUDY    45   3  18 SW10G20   29.65F
MIDDLESBORO    PTSUNNY   41   8  25 SW7G20    29.73F
MONTICELLO     MOCLDY    45  10  24 SW18G28   29.67F
$$





USA.gov is the U.S. government's official web portal to all federal, state and local government web resources and services.